Regional Weather Roundup
Issued by NWS

Home | Current Version | Previous Version | Graphics & Text | Print | Product List | Glossary On
Versions: 1 2 3 4 5 6 7 8 9 10 11 12 13 14 15 16 17 18 19 20 21 22 23 24 25 26 27 28 29 30 31 32 33 34 35 36 37 38 39 40 41 42 43 44 45 46 47 48 49 50
101
ASUS43 KMPX 101701
RWRMN
WEATHER ROUNDUP FOR MINNESOTA
NATIONAL WEATHER SERVICE TWIN CITIES/CHANHASSEN MN
1100 AM CST WED FEB 10 2016


NOTE: "FAIR" INDICATES FEW OR NO CLOUDS BELOW 12,000 FEET WITH NO
SIGNIFICANT WEATHER AND/OR OBSTRUCTIONS TO VISIBILITY. N/A MEANS
CURRENT SKY AND/OR WEATHER CONDITIONS ARE NOT AVAILABLE.

MNZ060>063-068>070-101800-
   Twin Cities Metro

CITY           SKY/WX    TMP DP  RH WIND       PRES   REMARKS
TWIN CITIES    CLOUDY     7  -5  57 N6        30.13F WCI  -3
ST PAUL        CLOUDY     5  -5  63 NW3       30.15F
CRYSTAL        CLOUDY     7  -5  57 N6        30.12F WCI  -3
BLAINE         PTSUNNY    7  -2  66 N5        30.12F WCI  -2
LAKEVILLE      CLOUDY     7  -4  61 NE3       30.11S
EDEN PRAIRIE   CLOUDY     9  -4  55 VRB3      30.11F
SOUTH ST PAUL  CLOUDY     6  -5  60 CALM      30.13S
LAKE ELMO      FAIR       5  -4  66 CALM      30.13F
$$
MNZ001>005-007-008-013>017-022>024-027-028-101800-
   Northwest Minnesota

CITY           SKY/WX    TMP DP  RH WIND       PRES   REMARKS
BEMIDJI        SUNNY     -2  -9  74 CALM      30.10S
HALLOCK        CLOUDY     3  -4  72 E8        30.17R WCI -10
ROSEAU         CLOUDY    -6  -9  84 E6        30.18R WCI -18
WARROAD        CLOUDY    -9 -13  84 NE5       30.18R WCI -21
THIEF RVR FALL CLOUDY     1  -6  71 E9        30.14R WCI -14
CROOKSTON      CLOUDY     5   0  78 E10       30.16R WCI -10
FOSSTON          N/A      3  -2  78 NE5       30.11R WCI  -6
DETROIT LAKES  CLOUDY     9   0  66 E6        30.07F WCI  -1
MOORHEAD       CLOUDY     9   1  72 E5        30.12R WCI   0
PARK RAPIDS    CLOUDY     2  -7  66 VRB3      30.08S
MAHNOMEN       CLOUDY     4  -3  71 E7        30.09S WCI  -8
$$
MNZ006-009>011-018-025>026-101800-
   North Central Minnesota

CITY           SKY/WX    TMP DP  RH WIND       PRES   REMARKS
BAUDETTE       CLOUDY    -8 -15  71 SE3       30.15R
FLAG ISLAND    CLOUDY    -9 -15  77 CALM      30.18R
INTL FALLS     SUNNY     -6 -13  71 NW3       30.16S
WASKISH        CLOUDY    -4  -9  77 NE3       30.14S
BIG FORK       CLOUDY    -2 -11  65 E2        30.11
LONGVILLE      CLOUDY     0  -9  65 NE5       30.10S WCI -10
GRAND RAPIDS   CLOUDY    -6 -11  77 NW6       30.10R WCI -18
ORR            SUNNY     -8 -15  71 CALM      30.09S
COOK           SUNNY     -4 -13  65 CALM      30.11S
WALKER         FAIR      -3 -10  69 SE3       30.10S
$$
MNZ012-019>021-037-101800-
   Northeast Minnesota

CITY           SKY/WX    TMP DP  RH WIND       PRES   REMARKS
DULUTH         MOSUNNY    2  -9  60 N3        30.07R
ELY            SUNNY     -6 -15  65 CALM      30.09R
HIBBING        CLOUDY    -5 -12  72 NW6       30.10R WCI -18
EVELETH        SUNNY      0 -11  60 CALM      30.10R
DULUTH HARBOR  PTSUNNY    5   0  78 N3        30.16S
TWO HARBORS    SUNNY      9  -9  43 CALM      30.08R
SILVER BAY     SUNNY      7 -11  43 NE3       30.07S
GRAND MARAIS     N/A      3 -11  52 N5        30.15R WCI  -6
G MARAIS ARPRT SUNNY     -6 -17  59 NW12G17   29.99S WCI -24
$$
MNZ029>031-032-039>041-046>048-054>057-064-101800-
   West Central Minnesota

CITY           SKY/WX    TMP DP  RH WIND       PRES   REMARKS
FERGUS FALLS   CLOUDY     9   0  66 E6        30.13R WCI  -1
WHEATON        LGT SNOW  10   7  85 SE10      30.10S WCI  -3
MORRIS         LGT SNOW   9   1  72 E10       30.07R WCI  -6
ALEXANDRIA     CLOUDY     5  -3  69 E9        30.06S WCI  -9
WADENA         CLOUDY     1  -6  71 E6        30.08S WCI -10
GLENWOOD       CLOUDY     7   0  72 E10       30.07S WCI  -8
APPLETON       LGT SNOW  10   5  79 E9        30.09R WCI  -2
BENSON         FLURRIES   9   1  72 CALM      30.09R
ORTONVILLE     FLURRIES   9   3  78 SE9       30.06F WCI  -5
MADISON        FLURRIES  10   5  79 SE10      30.08S WCI  -3
WILLMAR        FAIR      10   1  67 E6        30.10S WCI   1
$$
MNZ033>034-036-042>043-049>051-058-059-101800-
   Central Minnesota

CITY           SKY/WX    TMP DP  RH WIND       PRES   REMARKS
ST CLOUD       CLOUDY     5  -5  63 NE6       30.12R WCI  -6
SAUK CENTRE    FAIR       5  -4  68 E8        30.09R WCI  -9
PAYNESVILLE    CLOUDY     7  -2  66 E7        30.09S WCI  -5
AITKIN         SUNNY      1 -11  55 N3        30.10S
PINE RIVER       N/A      0  -8  71 CALM      30.13S
BRAINERD       CLOUDY     1  -8  66 N3        30.10S
STAPLES        CLOUDY     1  -8  66 NE5       30.09S WCI  -8
LONG PRAIRIE   CLOUDY     5  -4  66 N5        30.09R WCI  -4
LITTLE FALLS   CLOUDY     5  -6  61 NE3       30.12R
LITCHFIELD     PTSUNNY    9   0  66 E5        30.10S WCI   0
BUFFALO        CLOUDY     7  -4  60 NE3       30.13S
MAPLE LAKE     CLOUDY     8  -2  65 N5        30.12S WCI  -1
$$
MNZ037-044-045-052-053-101800-
   East Central Minnesota

CITY           SKY/WX    TMP DP  RH WIND       PRES   REMARKS
PRINCETON      CLOUDY     3  -6  66 N5        30.12S WCI  -6
MORA           CLOUDY     5  -8  56 CALM      30.14S
CAMBRIDGE      CLOUDY     5  -6  61 CALM      30.12S
RUSH CITY      MOSUNNY    1  -7  68 N3        30.15S
MOOSE LAKE     SUNNY      1  -9  60 NE5       30.10F WCI  -8
HINCKLEY       FAIR       3  -6  66 CALM      30.13R
CLOQUET        SUNNY      0 -11  60 CALM      30.09S
MCGREGOR       CLOUDY     1  -8  66 E3        30.11F
$$
MNZ071>073-080-081-089-090-097-098-101800-
   Southwest Minnesota

CITY           SKY/WX    TMP DP  RH WIND       PRES   REMARKS
MONTEVIDEO     LGT SNOW  10   5  79 S8        30.10S WCI  -1
GRANITE FALLS  LGT SNOW  11   6  79 E7        30.10S WCI   1
CANBY          LGT SNOW  14   9  81 SE10      30.06F WCI   1
MARSHALL       FLURRIES  10   4  76 SE12      30.06F WCI  -5
REDWOOD FALLS  LGT SNOW   8   2  76 SE8       30.09S WCI  -4
OLIVIA         MOSUNNY   10   3  72 E7        30.08F WCI   0
PIPESTONE      LGT SNOW  14   5  67 SE14      29.97S WCI  -1
WINDOM         LGT SNOW   9   3  78 E6        30.04S WCI  -1
WORTHINGTON    CLOUDY     9   3  78 E12       30.03R WCI  -6
JACKSON        LGT SNOW  10   5  79 E9        30.04F WCI  -2
TRACY          LGT SNOW  11   6  81 E8        30.05F WCI  -1
SLAYTON        LGT SNOW  10   7  89 E8        30.02R WCI  -3
$$
MNZ065>067-074>077-082>085-091>093-101800-
   South Central Minnesota

CITY           SKY/WX    TMP DP  RH WIND       PRES   REMARKS
MANKATO        CLOUDY     9  -2  61 E5        30.10S WCI   0
NEW ULM        CLOUDY     9   0  66 E3        30.10S
ST JAMES       LGT SNOW   9   3  78 E5        30.09S WCI   0
FAIRMONT       CLOUDY     9   1  72 E6        30.06F WCI  -1
GLENCOE        CLOUDY     8   1  70 E3        30.11S
FARIBAULT        N/A      7  -2  66 NE3       30.10F
OWATONNA       CLOUDY     7  -2  66 CALM      30.09R
WASECA         CLOUDY     9   1  72 N5        30.11R WCI   0
ALBERT LEA     CLOUDY     9   0  66 CALM      30.07S
$$
MNZ078>079-086>088-094>096-101800-
   Southeast Minnesota

CITY           SKY/WX    TMP DP  RH WIND       PRES   REMARKS
ROCHESTER      CLOUDY     5  -3  69 N6        30.06F WCI  -6
RED WING       CLOUDY     5  -6  61 CALM      30.13S
STANTON        CLOUDY     7  -3  63 NE3       30.10F
DODGE CENTER   CLOUDY     9  -2  61 N6        30.06S WCI  -1
WINONA         MOSUNNY   10   0  61 N6        30.14F WCI   1
AUSTIN         CLOUDY     7  -2  66 N7        30.08R WCI  -5
PRESTON        CLOUDY     4  -5  67 N5        30.07S WCI  -5
$$
ABBREVIATIONS USED IN REMARKS
   TC - TEMPERATURES IN CELSIUS
  WCI - WIND CHILL INDEX
   HX - HEAT INDEX
  VSB - VISIBILITY
$$




USA.gov is the U.S. government's official web portal to all federal, state and local government web resources and services.